STARLINK-33584, 62761

Orbit data source: Space-Track

STARLINK-33584, 62761 is a payload satellite owned by SpaceX/Seattle (US) in LEO that was launched on Tue, 21 Jan 2025 UTC via an FALCON 9 launch vehicle from the Air Force Western Test Range (AFWTR). Payload-class satellites include a variety of spacecraft equipped with specific instruments for various scientific and technological missions. These include communications satellites like Starlink; space stations such as the ISS; scientific satellites like the Hubble; Earth observation satellites from companies like Planet Labs, Umbra, and HawkEye 360; GPS; miniature CubeSats for education and research; and military/defense satellites.

Loading next visibility...
Identifier
62761, 2025-015D
Orbit
LEO
Country
Flag of USUS
Related business
Manufacturer
SpaceX/Seattle
Mission
Operational Commercial Communications
Bus & Motor
STARLINK V2MO, Unknown motor
Mass
575 kg wet, ~530 kg dry
Launch date (UTC)
2025-01-21 (1 year ago)
Launch vehicle
FALCON 9
Launch site
Air Force Western Test Range (AFWTR)
Object type
Payload
Rocket body
Debris
Shape & HBR
Box + 2 Pan, 17.7 m
Radar Cross Section
36.964 m², Large (>1 m²)

Expand to show TLE details & history
Last TLE update: 14 hours ago

TLE from 14 hours ago
0 STARLINK-33584
1 62761U 25015D   26171.40162250  .00000339  00000-0  21189-4 0  9992
2 62761  53.1584 204.1799 0001926 157.6791 202.4296 15.34390261 80227
Epoch: 2026-06-20T09:38Z
TLE epoch observation values (Epoch: 2026-06-20T09:38:20.184Z)
Latitude
-0.00002°
Longitude
150.97902°
Altitude
464.851 km
Speed
7.635 km/s
True Right ascension
13h 36m 43s
True Declination
0° 00' 00"
Sunlit
Object was in full shadow at epoch
Visualization orbit readout
Latitude
Unknown
Longitude
Unknown
Altitude
Unknown
Speed
Unknown
Apparent Right ascension
Unknown
Apparent Declination
Unknown
Sunlit
N/A
Visualization observer readout
Local Sidereal Time
10:18:50
Azimuth
Unknown
Elevation
Unknown
Doppler factor
Unknown
Orbital elements
Apogee altitude
464.307 km
Perigee altitude
461.672 km
Semi-major axis
6,841.126 km
Eccentricity
0.00019
Inclination
53.1584°
RAAN
204.1799°
Arg. of periapsis
157.6791°
True anomaly
202.42118°
Mean anomaly
202.4296°
Eccentric anomaly
202.42539°
Mean motion
3.83576 °/min
Orbital period
93.85 mins
BSTAR
0.000021189
Loading maneuver chart data...
Computing Atmospheric mass density...
Loading historical data...
Loading historical data...
Loading historical data...
Loading historical data...
Loading historical data...
Loading historical data...
Loading historical data...

Documentation

Showing up to 5 results
|